Tracking 22879 objects as of 22-Apr-2021
HD Live streaming from Space Station
objects crossing your sky now

ORBICRAFT-ZORKIY

Track ORBICRAFT-ZORKIY now!
10-day predictions
ORBICRAFT-ZORKIY is classified as:


NORAD ID: 47960
Int'l Code: 2021-022AE
Perigee: 541.3 km
Apogee: 571.9 km
Inclination: 97.6 °
Period: 95.6 minutes
Semi major axis: 6927 km
RCS: Unknown
Launch date: March 22, 2021
Source: (TBD)
Launch site: TYURATAM MISSILE AND SPACE COMPLEX (TTMTR)

Uplink (MHz):
Downlink (MHz): 437.850/437.950/10465.000
Beacon (MHz):
Mode: 9k6FSK/DVB-S2
Call sign: RS15S
Status: Active

aabbcc
Your satellite tracking list
Your tracking list is empty




NASA's NSSDC Master Catalog

Two Line Element Set (TLE):
1 47960U 21022AE  21111.76828111  .00000720  00000-0  53852-4 0  9999
2 47960  97.5631  15.0604 0022052 140.7103 305.1692 15.05667750  4037
Source of the keplerian elements: AFSPC